| time (UTC) | temp F | wind direction | speed knots | gust knots | rain 1hr in | rain 24hr in | rain mn in | humidity % | barometer mb |
| 20260508085204 | 45 | 196 | 0.9 | 5.2 | 0.00 | 0.00 | 0.00 | 81 | 1012.3 |
| 20260508084705 | 45 | 223 | 1.7 | 6.1 | 0.00 | 0.00 | 0.00 | 81 | 1012.3 |
| 20260508084205 | 46 | 194 | 0.0 | 0.0 | 0.00 | 0.00 | 0.00 | 81 | 1012.3 |
| 20260508083705 | 46 | 212 | 0.9 | 7.8 | 0.00 | 0.00 | 0.00 | 81 | 1012.3 |
| 20260508083205 | 46 | 221 | 0.0 | 4.3 | 0.00 | 0.00 | 0.00 | 80 | 1012.3 |
| 20260508082705 | 46 | 198 | 0.9 | 5.2 | 0.00 | 0.00 | 0.00 | 80 | 1012.3 |
| 20260508082205 | 46 | 224 | 0.9 | 6.1 | 0.00 | 0.00 | 0.00 | 80 | 1012.3 |
| 20260508081205 | 46 | 230 | 1.7 | 6.1 | 0.00 | 0.00 | 0.00 | 79 | 1012.4 |
| 20260508080705 | 46 | 223 | 0.9 | 6.1 | 0.00 | 0.00 | 0.00 | 78 | 1012.4 |
| 20260508080205 | 47 | 220 | 1.7 | 6.1 | 0.00 | 0.00 | 0.00 | 78 | 1012.4 |
| 20260508075704 | 47 | 263 | 1.7 | 7.8 | 0.00 | 0.00 | 0.00 | 78 | 1012.5 |
| 20260508074705 | 47 | 222 | 1.7 | 7.8 | 0.00 | 0.00 | 0.00 | 77 | 1012.5 |
| 20260508074204 | 47 | 236 | 2.6 | 7.8 | 0.00 | 0.00 | 0.00 | 77 | 1012.5 |
| 20260508073704 | 47 | 266 | 0.9 | 8.7 | 0.00 | 0.00 | 0.00 | 76 | 1012.5 |
| 20260508073205 | 47 | 227 | 1.7 | 8.7 | 0.00 | 0.00 | 0.00 | 76 | 1012.5 |
| 20260508072705 | 47 | 218 | 5.2 | 10.4 | 0.00 | 0.00 | 0.00 | 75 | 1012.5 |
| 20260508071705 | 47 | 202 | 2.6 | 8.7 | 0.00 | 0.00 | 0.00 | 74 | 1012.5 |
| 20260508071205 | 47 | 222 | 4.3 | 11.3 | 0.00 | 0.00 | 0.00 | 73 | 1012.5 |
| 20260508065704 | 47 | 227 | 5.2 | 10.4 | 0.00 | 0.00 | 0.00 | 72 | 1012.5 |
| 20260508065204 | 47 | 248 | 1.7 | 7.8 | 0.00 | 0.00 | 0.00 | 72 | 1012.5 |
| 20260508064704 | 47 | 225 | 1.7 | 6.1 | 0.00 | 0.00 | 0.00 | 72 | 1012.5 |
| 20260508064205 | 47 | 222 | 2.6 | 5.2 | 0.00 | 0.00 | 0.00 | 72 | 1012.5 |
| 20260508063704 | 47 | 226 | 0.9 | 6.1 | 0.00 | 0.00 | 0.00 | 72 | 1012.5 |
| 20260508063205 | 47 | 218 | 1.7 | 5.2 | 0.00 | 0.00 | 0.00 | 72 | 1012.5 |
| 20260508062204 | 47 | 189 | 0.0 | 2.6 | 0.00 | 0.00 | 0.00 | 72 | 1012.5 |
| 20260508061705 | 47 | 194 | 0.0 | 0.0 | 0.00 | 0.00 | 0.00 | 73 | 1012.5 |
| 20260508061204 | 47 | 197 | 0.0 | 0.0 | 0.00 | 0.00 | 0.00 | 73 | 1013.1 |
| 20260508060704 | 47 | 206 | 0.0 | 0.0 | 0.00 | 0.00 | 0.00 | 73 | 1013.1 |
| 20260508060204 | 47 | 203 | 0.0 | 0.0 | 0.00 | 0.00 | 0.00 | 73 | 1013.1 |
| 20260508055705 | 47 | 183 | 0.9 | 2.6 | 0.00 | 0.00 | 0.00 | 73 | 1013.1 |
| 20260508055204 | 47 | 167 | 0.0 | 0.0 | 0.00 | 0.00 | 0.00 | 73 | 1013.1 |
| 20260508052705 | 47 | 194 | 0.0 | 0.0 | 0.00 | 0.00 | 0.00 | 72 | 1013.1 |
| 20260508052205 | 47 | 193 | 0.0 | 0.0 | 0.00 | 0.00 | 0.00 | 72 | 1013.1 |
| 20260508051205 | 47 | 230 | 0.0 | 0.0 | 0.00 | 0.00 | 0.00 | 72 | 1013.1 |
| 20260508050704 | 47 | 213 | 0.0 | 0.0 | 0.00 | 0.00 | 0.00 | 72 | 1013.1 |
| 20260508050204 | 47 | 210 | 0.0 | 0.0 | 0.00 | 0.00 | 0.00 | 71 | 1013.1 |
| 20260508045205 | 47 | 196 | 0.0 | 4.3 | 0.00 | 0.00 | 0.00 | 71 | 1013.1 |
| 20260508044704 | 47 | 223 | 0.9 | 4.3 | 0.00 | 0.00 | 0.00 | 71 | 1013.1 |
| 20260508044205 | 47 | 238 | 0.0 | 4.3 | 0.00 | 0.00 | 0.00 | 71 | 1013.1 |
| 20260508043704 | 47 | 218 | 0.9 | 4.3 | 0.00 | 0.00 | 0.00 | 71 | 1013.1 |
| 20260508043205 | 47 | 220 | 0.9 | 4.3 | 0.00 | 0.00 | 0.00 | 71 | 1013.1 |
| 20260508041705 | 47 | 240 | 1.7 | 4.3 | 0.00 | 0.00 | 0.00 | 71 | 1013.1 |
| 20260508040704 | 47 | 227 | 0.0 | 2.6 | 0.00 | 0.00 | 0.00 | 70 | 1013.1 |
| 20260508040204 | 46 | 225 | 2.6 | 5.2 | 0.00 | 0.00 | 0.00 | 71 | 1013.1 |
| 20260508035705 | 46 | 248 | 1.7 | 7.8 | 0.00 | 0.00 | 0.00 | 71 | 1013.1 |
| 20260508034704 | 45 | 213 | 1.7 | 6.1 | 0.00 | 0.00 | 0.00 | 71 | 1013.2 |
| 20260508034205 | 45 | 240 | 1.7 | 4.3 | 0.00 | 0.00 | 0.00 | 71 | 1013.2 |
| 20260508033205 | 44 | 218 | 0.9 | 5.2 | 0.00 | 0.00 | 0.00 | 72 | 1013.3 |
| 20260508032704 | 43 | 226 | 0.0 | 0.0 | 0.00 | 0.00 | 0.00 | 72 | 1013.3 |
| 20260508032205 | 43 | 236 | 0.0 | 0.0 | 0.00 | 0.00 | 0.00 | 72 | 1013.2 |
| 20260508031204 | 43 | 210 | 0.0 | 0.0 | 0.00 | 0.00 | 0.00 | 72 | 1013.2 |
| 20260508030704 | 43 | 211 | 0.0 | 0.0 | 0.00 | 0.00 | 0.00 | 72 | 1013.2 |
| 20260508030204 | 43 | 213 | 0.0 | 0.0 | 0.00 | 0.00 | 0.00 | 72 | 1013.2 |
| 20260508025705 | 43 | 212 | 0.0 | 0.0 | 0.00 | 0.00 | 0.00 | 72 | 1013.2 |
| 20260508025204 | 43 | 230 | 0.0 | 0.0 | 0.00 | 0.00 | 0.00 | 72 | 1013.2 |
| 20260508024704 | 44 | 228 | 0.0 | 0.0 | 0.00 | 0.00 | 0.00 | 72 | 1013.2 |
| 20260508023705 | 44 | 229 | 0.0 | 0.0 | 0.00 | 0.00 | 0.00 | 71 | 1013.1 |
| 20260508022704 | 44 | 229 | 0.0 | 0.0 | 0.00 | 0.00 | 0.00 | 71 | 1013.0 |
| 20260508021205 | 44 | 279 | 0.0 | 0.0 | 0.00 | 0.00 | 0.00 | 70 | 1013.0 |
| 20260508020205 | 45 | 279 | 0.0 | 0.0 | 0.00 | 0.00 | 0.00 | 68 | 1012.9 |
| 20260508015204 | 46 | 279 | 0.0 | 0.0 | 0.00 | 0.00 | 0.00 | 67 | 1012.7 |
| 20260508014704 | 46 | 279 | 0.0 | 0.0 | 0.00 | 0.00 | 0.00 | 65 | 1012.7 |
| 20260508014204 | 46 | 279 | 0.0 | 0.0 | 0.00 | 0.00 | 0.00 | 64 | 1012.7 |
| 20260508013704 | 46 | 279 | 0.0 | 0.0 | 0.00 | 0.00 | 0.00 | 64 | 1012.7 |
| 20260508013204 | 47 | 279 | 0.0 | 0.0 | 0.00 | 0.00 | 0.00 | 64 | 1012.7 |
| 20260508012704 | 47 | 279 | 0.0 | 0.0 | 0.00 | 0.00 | 0.00 | 63 | 1012.6 |
| 20260508012204 | 47 | 279 | 0.0 | 0.0 | 0.00 | 0.00 | 0.00 | 62 | 1012.6 |
| 20260508011204 | 48 | 279 | 0.0 | 0.0 | 0.00 | 0.00 | 0.00 | 59 | 1012.6 |
| 20260508010704 | 49 | 279 | 0.0 | 0.0 | 0.00 | 0.00 | 0.00 | 57 | 1012.6 |
| 20260508010205 | 49 | 279 | 0.0 | 0.0 | 0.00 | 0.00 | 0.00 | 56 | 1012.6 |
| 20260508005705 | 49 | 279 | 0.0 | 0.0 | 0.00 | 0.00 | 0.00 | 55 | 1012.6 |
| 20260508005204 | 50 | 279 | 0.0 | 0.0 | 0.00 | 0.00 | 0.00 | 55 | 1012.6 |
| 20260508004204 | 50 | 279 | 0.0 | 0.0 | 0.00 | 0.00 | 0.00 | 54 | 1012.6 |
| 20260508002704 | 51 | 299 | 0.9 | 5.2 | 0.00 | 0.00 | 0.00 | 53 | 1012.6 |
| 20260508001705 | 51 | 276 | 1.7 | 5.2 | 0.00 | 0.00 | 0.00 | 52 | 1012.4 |
| 20260508001205 | 51 | 288 | 1.7 | 7.0 | 0.00 | 0.00 | 0.00 | 51 | 1012.4 |
| 20260508000205 | 52 | 294 | 4.3 | 7.8 | 0.00 | 0.00 | 0.00 | 50 | 1012.4 |
| 20260507235705 | 52 | 292 | 5.2 | 8.7 | 0.00 | 0.00 | 0.00 | 49 | 1012.4 |
| 20260507235205 | 53 | 276 | 3.5 | 10.4 | 0.00 | 0.00 | 0.00 | 49 | 1012.3 |
| 20260507234705 | 53 | 312 | 7.0 | 11.3 | 0.00 | 0.00 | 0.00 | 48 | 1012.3 |
| 20260507234204 | 53 | 300 | 6.1 | 10.4 | 0.00 | 0.00 | 0.00 | 50 | 1012.3 |
| 20260507233704 | 54 | 280 | 5.2 | 10.4 | 0.00 | 0.00 | 0.00 | 50 | 1012.5 |
| 20260507232705 | 54 | 284 | 5.2 | 13.9 | 0.00 | 0.00 | 0.00 | 49 | 1012.5 |
| 20260507232205 | 54 | 300 | 9.6 | 13.0 | 0.00 | 0.00 | 0.00 | 47 | 1012.5 |
| 20260507231704 | 54 | 310 | 7.0 | 13.0 | 0.00 | 0.00 | 0.00 | 48 | 1012.5 |
| 20260507231205 | 55 | 312 | 7.0 | 11.3 | 0.00 | 0.00 | 0.00 | 48 | 1012.5 |
| 20260507230704 | 55 | 300 | 5.2 | 13.0 | 0.00 | 0.00 | 0.00 | 47 | 1012.5 |
| 20260507230205 | 55 | 301 | 10.4 | 13.9 | 0.00 | 0.00 | 0.00 | 46 | 1012.5 |
| 20260507225705 | 55 | 291 | 9.6 | 17.4 | 0.00 | 0.00 | 0.00 | 47 | 1012.5 |
| 20260507225204 | 55 | 309 | 7.8 | 13.0 | 0.00 | 0.00 | 0.00 | 48 | 1012.5 |
| 20260507224705 | 55 | 297 | 5.2 | 15.6 | 0.00 | 0.00 | 0.00 | 47 | 1012.5 |
| 20260507224205 | 56 | 314 | 7.8 | 13.0 | 0.00 | 0.00 | 0.00 | 47 | 1012.5 |
| 20260507223704 | 56 | 298 | 8.7 | 17.4 | 0.00 | 0.00 | 0.00 | 47 | 1012.5 |
| 20260507223204 | 56 | 290 | 7.0 | 17.4 | 0.00 | 0.00 | 0.00 | 48 | 1012.5 |
| 20260507222704 | 56 | 297 | 7.8 | 13.0 | 0.00 | 0.00 | 0.00 | 47 | 1012.5 |
| 20260507222204 | 56 | 299 | 9.6 | 17.4 | 0.00 | 0.00 | 0.00 | 47 | 1012.5 |
| 20260507221705 | 56 | 317 | 10.4 | 15.6 | 0.00 | 0.00 | 0.00 | 46 | 1012.5 |
| 20260507221204 | 56 | 298 | 7.8 | 13.0 | 0.00 | 0.00 | 0.00 | 48 | 1012.5 |
| 20260507220704 | 56 | 287 | 7.0 | 18.2 | 0.00 | 0.00 | 0.00 | 47 | 1012.5 |
| 20260507215704 | 55 | 278 | 8.7 | 17.4 | 0.00 | 0.00 | 0.00 | 46 | 1012.4 |
| 20260507215204 | 56 | 291 | 8.7 | 17.4 | 0.00 | 0.00 | 0.00 | 45 | 1012.4 |
| 20260507214704 | 56 | 279 | 8.7 | 19.1 | 0.00 | 0.00 | 0.00 | 45 | 1012.2 |
| 20260507214205 | 56 | 287 | 8.7 | 17.4 | 0.00 | 0.00 | 0.00 | 46 | 1012.2 |
| 20260507213705 | 56 | 280 | 10.4 | 21.7 | 0.00 | 0.00 | 0.00 | 47 | 1012.2 |
| 20260507213204 | 56 | 283 | 8.7 | 15.6 | 0.00 | 0.00 | 0.00 | 48 | 1012.3 |
| 20260507212705 | 56 | 294 | 9.6 | 15.6 | 0.00 | 0.00 | 0.00 | 49 | 1012.4 |
| 20260507212204 | 55 | 292 | 7.8 | 17.4 | 0.00 | 0.00 | 0.00 | 54 | 1012.4 |
| 20260507211704 | 55 | 297 | 8.7 | 15.6 | 0.00 | 0.00 | 0.00 | 54 | 1012.4 |
| 20260507211205 | 55 | 308 | 7.0 | 17.4 | 0.00 | 0.00 | 0.00 | 55 | 1012.2 |
| 20260507210705 | 56 | 284 | 8.7 | 17.4 | 0.00 | 0.00 | 0.00 | 54 | 1012.2 |
| 20260507210204 | 56 | 286 | 8.7 | 12.2 | 0.00 | 0.00 | 0.00 | 57 | 1012.1 |
| 20260507205705 | 56 | 304 | 7.0 | 12.2 | 0.00 | 0.00 | 0.00 | 57 | 1012.1 |
| 20260507205204 | 55 | 300 | 7.8 | 11.3 | 0.00 | 0.00 | 0.00 | 60 | 1012.0 |
| 20260507204704 | 54 | 301 | 5.2 | 10.4 | 0.00 | 0.00 | 0.00 | 60 | 1012.0 |
| 20260507203205 | 53 | 297 | 6.1 | 10.4 | 0.00 | 0.00 | 0.00 | 60 | 1012.0 |
| 20260507202705 | 53 | 294 | 5.2 | 11.3 | 0.00 | 0.00 | 0.00 | 60 | 1011.9 |
| 20260507202205 | 53 | 307 | 8.7 | 12.2 | 0.00 | 0.00 | 0.00 | 59 | 1011.9 |
| 20260507201205 | 54 | 298 | 8.7 | 17.4 | 0.00 | 0.00 | 0.00 | 58 | 1011.9 |
| 20260507200704 | 55 | 303 | 9.6 | 15.6 | 0.00 | 0.00 | 0.00 | 58 | 1011.9 |
| 20260507194705 | 55 | 312 | 7.8 | 15.6 | 0.00 | 0.00 | 0.00 | 56 | 1012.1 |
| 20260507194204 | 55 | 325 | 4.3 | 11.3 | 0.00 | 0.00 | 0.00 | 58 | 1012.1 |
| 20260507193704 | 55 | 316 | 8.7 | 12.2 | 0.00 | 0.00 | 0.00 | 58 | 1012.1 |
| 20260507193205 | 55 | 317 | 6.1 | 10.4 | 0.00 | 0.00 | 0.00 | 58 | 1012.1 |
| 20260507191704 | 56 | 276 | 1.7 | 7.0 | 0.00 | 0.00 | 0.00 | 59 | 1012.1 |
| 20260507191204 | 56 | 277 | 6.1 | 8.7 | 0.00 | 0.00 | 0.00 | 57 | 1012.1 |
| 20260507190705 | 56 | 288 | 4.3 | 10.4 | 0.00 | 0.00 | 0.00 | 56 | 1012.1 |
| 20260507190205 | 56 | 292 | 7.8 | 11.3 | 0.00 | 0.00 | 0.00 | 56 | 1012.1 |
| 20260507185705 | 56 | 305 | 3.5 | 7.8 | 0.00 | 0.00 | 0.00 | 58 | 1012.1 |
| 20260507184705 | 56 | 287 | 4.3 | 12.2 | 0.00 | 0.00 | 0.00 | 57 | 1012.1 |
| 20260507184204 | 56 | 302 | 7.0 | 13.0 | 0.00 | 0.00 | 0.00 | 61 | 1012.2 |
| 20260507183704 | 55 | 292 | 5.2 | 10.4 | 0.00 | 0.00 | 0.00 | 60 | 1012.3 |
| 20260507183204 | 55 | 322 | 6.1 | 8.7 | 0.00 | 0.00 | 0.00 | 58 | 1012.3 |
| 20260507182704 | 55 | 231 | 1.7 | 10.4 | 0.00 | 0.00 | 0.00 | 59 | 1012.3 |
| 20260507182205 | 55 | 285 | 5.2 | 8.7 | 0.00 | 0.00 | 0.00 | 61 | 1012.3 |
| 20260507181705 | 55 | 301 | 6.1 | 12.2 | 0.00 | 0.00 | 0.00 | 58 | 1012.3 |
| 20260507181204 | 55 | 306 | 6.1 | 10.4 | 0.00 | 0.00 | 0.00 | 59 | 1012.3 |
| 20260507180704 | 55 | 293 | 7.0 | 11.3 | 0.00 | 0.00 | 0.00 | 57 | 1012.3 |
| 20260507180204 | 55 | 286 | 6.1 | 12.2 | 0.00 | 0.00 | 0.00 | 59 | 1012.3 |
| 20260507175704 | 55 | 291 | 4.3 | 11.3 | 0.00 | 0.00 | 0.00 | 56 | 1012.3 |
| 20260507175204 | 55 | 316 | 7.8 | 13.9 | 0.00 | 0.00 | 0.00 | 59 | 1012.3 |
| 20260507174204 | 55 | 0 | 4.3 | 10.4 | 0.00 | 0.00 | 0.00 | 55 | 1012.4 |
| 20260507173704 | 55 | 321 | 6.1 | 10.4 | 0.00 | 0.00 | 0.00 | 55 | 1012.4 |
| 20260507173205 | 56 | 316 | 7.0 | 12.2 | 0.00 | 0.00 | 0.00 | 52 | 1012.4 |
| 20260507172205 | 55 | 309 | 7.8 | 11.3 | 0.00 | 0.00 | 0.00 | 56 | 1012.5 |
| 20260507171705 | 55 | 292 | 5.2 | 7.8 | 0.00 | 0.00 | 0.00 | 56 | 1012.5 |
| 20260507171204 | 55 | 326 | 6.1 | 10.4 | 0.00 | 0.00 | 0.00 | 55 | 1012.5 |
| 20260507170705 | 55 | 338 | 4.3 | 10.4 | 0.00 | 0.00 | 0.00 | 60 | 1012.5 |
| 20260507170205 | 55 | 276 | 4.3 | 8.7 | 0.00 | 0.00 | 0.00 | 55 | 1012.5 |
| 20260507165204 | 56 | 312 | 6.1 | 11.3 | 0.00 | 0.00 | 0.00 | 56 | 1012.5 |
| 20260507164705 | 55 | 330 | 1.7 | 10.4 | 0.00 | 0.00 | 0.00 | 58 | 1012.5 |
| 20260507164205 | 55 | 289 | 0.0 | 7.0 | 0.00 | 0.00 | 0.00 | 58 | 1012.5 |
| 20260507163704 | 55 | 300 | 5.2 | 10.4 | 0.00 | 0.00 | 0.00 | 58 | 1012.5 |
| 20260507163204 | 55 | 328 | 2.6 | 7.8 | 0.00 | 0.00 | 0.00 | 56 | 1012.5 |
| 20260507162705 | 55 | 12 | 4.3 | 11.3 | 0.00 | 0.00 | 0.00 | 62 | 1012.5 |
| 20260507162205 | 54 | 314 | 3.5 | 7.8 | 0.00 | 0.00 | 0.00 | 61 | 1012.6 |
| 20260507161704 | 54 | 267 | 3.5 | 7.8 | 0.00 | 0.00 | 0.00 | 59 | 1012.6 |
| 20260507161204 | 54 | 340 | 2.6 | 7.8 | 0.00 | 0.00 | 0.00 | 60 | 1012.6 |
| 20260507160705 | 54 | 299 | 5.2 | 10.4 | 0.00 | 0.00 | 0.00 | 60 | 1012.6 |
| 20260507160205 | 54 | 20 | 5.2 | 7.8 | 0.00 | 0.00 | 0.00 | 62 | 1012.6 |
| 20260507155704 | 54 | 332 | 4.3 | 7.8 | 0.00 | 0.00 | 0.00 | 64 | 1012.6 |
| 20260507155205 | 54 | 311 | 1.7 | 6.1 | 0.00 | 0.00 | 0.00 | 62 | 1012.6 |
| 20260507154705 | 54 | 322 | 1.7 | 5.2 | 0.00 | 0.00 | 0.00 | 62 | 1012.6 |
| 20260507154204 | 54 | 336 | 2.6 | 6.1 | 0.00 | 0.00 | 0.00 | 61 | 1012.6 |
| 20260507153204 | 55 | 326 | 2.6 | 8.7 | 0.00 | 0.00 | 0.00 | 61 | 1012.6 |
| 20260507152705 | 55 | 17 | 4.3 | 7.0 | 0.00 | 0.00 | 0.00 | 56 | 1012.6 |
| 20260507152205 | 55 | 326 | 7.0 | 10.4 | 0.00 | 0.00 | 0.00 | 59 | 1012.6 |
| 20260507151704 | 55 | 303 | 2.6 | 7.0 | 0.00 | 0.00 | 0.00 | 57 | 1012.6 |
| 20260507151205 | 55 | 305 | 5.2 | 10.4 | 0.00 | 0.00 | 0.00 | 56 | 1012.6 |
| 20260507150204 | 56 | 303 | 2.6 | 7.0 | 0.00 | 0.00 | 0.00 | 54 | 1012.6 |
| 20260507145704 | 56 | 261 | 2.6 | 7.8 | 0.00 | 0.00 | 0.00 | 55 | 1012.6 |
| 20260507145204 | 56 | 301 | 4.3 | 8.7 | 0.00 | 0.00 | 0.00 | 56 | 1012.6 |
| 20260507144704 | 56 | 291 | 2.6 | 10.4 | 0.00 | 0.00 | 0.00 | 58 | 1012.6 |
| 20260507144205 | 56 | 315 | 5.2 | 7.0 | 0.00 | 0.00 | 0.00 | 60 | 1012.6 |
| 20260507142704 | 56 | 315 | 2.6 | 7.8 | 0.00 | 0.00 | 0.00 | 60 | 1012.6 |
| 20260507142204 | 55 | 301 | 1.7 | 7.0 | 0.00 | 0.00 | 0.00 | 60 | 1013.0 |
| 20260507141705 | 55 | 254 | 0.9 | 5.2 | 0.00 | 0.00 | 0.00 | 62 | 1013.0 |
| 20260507140705 | 55 | 305 | 2.6 | 6.1 | 0.00 | 0.00 | 0.00 | 67 | 1013.0 |
| 20260507140204 | 55 | 282 | 1.7 | 7.0 | 0.00 | 0.00 | 0.00 | 67 | 1013.0 |
| 20260507135705 | 55 | 288 | 3.5 | 7.0 | 0.00 | 0.00 | 0.00 | 66 | 1013.1 |
| 20260507134704 | 53 | 241 | 0.0 | 0.0 | 0.00 | 0.00 | 0.00 | 68 | 1013.3 |
| 20260507134204 | 53 | 311 | 0.0 | 0.0 | 0.00 | 0.00 | 0.00 | 71 | 1013.3 |
| 20260507133705 | 53 | 283 | 0.0 | 0.0 | 0.00 | 0.00 | 0.00 | 70 | 1013.3 |
| 20260507132204 | 51 | 296 | 0.0 | 0.0 | 0.00 | 0.00 | 0.00 | 73 | 1013.3 |
| 20260507131704 | 51 | 288 | 0.0 | 0.0 | 0.00 | 0.00 | 0.00 | 73 | 1013.3 |
| 20260507125205 | 48 | 271 | 0.0 | 0.0 | 0.00 | 0.00 | 0.00 | 74 | 1012.8 |
| 20260507124705 | 48 | 273 | 0.0 | 0.0 | 0.00 | 0.00 | 0.00 | 75 | 1012.8 |
| 20260507124205 | 48 | 263 | 0.0 | 0.0 | 0.00 | 0.00 | 0.00 | 76 | 1012.8 |
| 20260507123704 | 47 | 263 | 0.0 | 0.0 | 0.00 | 0.00 | 0.00 | 77 | 1012.8 |
| 20260507123204 | 47 | 263 | 0.0 | 0.9 | 0.00 | 0.00 | 0.00 | 77 | 1012.8 |
| 20260507122705 | 46 | 259 | 0.9 | 5.2 | 0.00 | 0.00 | 0.00 | 77 | 1012.8 |
| 20260507122205 | 46 | 285 | 3.5 | 6.1 | 0.00 | 0.00 | 0.00 | 77 | 1012.8 |
| 20260507115705 | 45 | 261 | 3.5 | 7.8 | 0.00 | 0.00 | 0.00 | 80 | 1012.8 |
| 20260507115204 | 44 | 252 | 4.3 | 6.1 | 0.00 | 0.00 | 0.00 | 81 | 1012.8 |
| 20260507114705 | 44 | 284 | 4.3 | 6.1 | 0.00 | 0.00 | 0.00 | 82 | 1012.8 |
| 20260507114205 | 43 | 199 | 0.9 | 5.2 | 0.00 | 0.00 | 0.00 | 83 | 1012.8 |
| 20260507113705 | 43 | 218 | 0.0 | 6.1 | 0.00 | 0.00 | 0.00 | 85 | 1012.8 |
| 20260507113204 | 42 | 224 | 0.9 | 4.3 | 0.00 | 0.00 | 0.00 | 85 | 1012.8 |
| 20260507110705 | 41 | 189 | 0.0 | 0.0 | 0.00 | 0.00 | 0.00 | 85 | 1012.7 |
| 20260507110205 | 41 | 186 | 0.0 | 0.0 | 0.00 | 0.00 | 0.00 | 85 | 1012.7 |
| 20260507105704 | 41 | 186 | 0.0 | 0.0 | 0.00 | 0.00 | 0.00 | 85 | 1012.7 |
| 20260507105204 | 41 | 177 | 0.0 | 0.0 | 0.00 | 0.00 | 0.00 | 85 | 1012.7 |
| 20260507104205 | 41 | 173 | 0.0 | 0.0 | 0.00 | 0.00 | 0.00 | 85 | 1012.5 |
| 20260507103704 | 41 | 173 | 0.0 | 0.0 | 0.00 | 0.00 | 0.00 | 84 | 1012.5 |
| 20260507102705 | 40 | 163 | 0.0 | 0.0 | 0.00 | 0.00 | 0.00 | 84 | 1012.5 |
| 20260507101704 | 41 | 180 | 0.0 | 0.0 | 0.00 | 0.00 | 0.00 | 84 | 1012.5 |
| 20260507100704 | 41 | 180 | 0.0 | 0.0 | 0.00 | 0.00 | 0.00 | 84 | 1012.5 |
| 20260507100205 | 41 | 180 | 0.0 | 0.9 | 0.00 | 0.00 | 0.00 | 84 | 1012.5 |
| 20260507095704 | 41 | 181 | 0.0 | 2.6 | 0.00 | 0.00 | 0.00 | 83 | 1012.5 |
| 20260507095205 | 41 | 182 | 0.9 | 2.6 | 0.00 | 0.00 | 0.00 | 83 | 1012.5 |
| 20260507094704 | 41 | 193 | 0.9 | 2.6 | 0.00 | 0.00 | 0.00 | 83 | 1012.5 |
| 20260507094205 | 41 | 178 | 0.0 | 0.0 | 0.00 | 0.00 | 0.00 | 82 | 1012.5 |
| 20260507092704 | 41 | 177 | 0.0 | 0.0 | 0.00 | 0.01 | 0.00 | 82 | 1012.6 |
| 20260507092204 | 41 | 182 | 0.0 | 0.0 | 0.00 | 0.01 | 0.00 | 82 | 1012.6 |
| 20260507091704 | 41 | 182 | 0.0 | 0.0 | 0.00 | 0.01 | 0.00 | 82 | 1012.6 |
| 20260507091204 | 41 | 178 | 0.0 | 0.0 | 0.00 | 0.02 | 0.00 | 82 | 1012.6 |
| 20260507090704 | 41 | 191 | 0.0 | 0.0 | 0.00 | 0.02 | 0.00 | 82 | 1012.6 |
| 20260507090205 | 41 | 188 | 0.0 | 0.0 | 0.00 | 0.02 | 0.00 | 82 | 1012.6 |